Showing default

OPS 0100 (TRANSIT 15), 2754

Orbit data source: Space-Track

OPS 0100 (TRANSIT 15), 2754 is a payload satellite owned by USN NAVAIR (US) in LEO that was launched on Fri, 14 Apr 1967 UTC via an SCOUT A launch vehicle from the Air Force Western Test Range (AFWTR). Payload-class satellites include a variety of spacecraft equipped with specific instruments for various scientific and technological missions. These include communications satellites like Starlink; space stations such as the ISS; scientific satellites like the Hubble; Earth observation satellites from companies like Planet Labs, Umbra, and HawkEye 360; GPS; miniature CubeSats for education and research; and military/defense satellites.

Loading next visibility...
Identifier
2754, 1967-034A
Orbit
LEO
Country
Flag of USUS
Related business
Manufacturer
APL
Mission
Defense Navigation
Bus & Motor
TRANSIT 5, Unknown motor
Mass
~50 kg wet, ~50 kg dry
Launch date (UTC)
1967-04-14 (58 years ago)
Launch vehicle
SCOUT A
Launch site
Air Force Western Test Range (AFWTR)
Object type
Payload
Rocket body
Debris
Shape & HBR
Oct Cyl + 4 Pan + 1 Rod, Unknown HBR
Radar Cross Section
7.565 m², Large (>1 m²)

Expand to show TLE details & history
Last TLE update: 1 day ago

TLE from 1 day ago
0 OPS 0100 (TRANSIT 15)
1 02754U 67034A   25241.95038558  .00000156  00000-0  20632-3 0  9993
2 02754  90.2234  28.3493 0017564 279.0312 202.7325 13.57319878886607
Epoch: 2025-08-29T22:48Z
TLE epoch observation values (Epoch: 2025-08-29T22:48:33.314Z)
Latitude
58.40496°
Longitude
-111.81985°
Altitude
1,067.424 km
Speed
7.318 km/s
True Right ascension
13h 54m 50s
True Declination
58° 15' 28"
Sunlit
Object was in daylight at epoch
Visualization orbit readout
Latitude
Unknown
Longitude
Unknown
Altitude
Unknown
Speed
Unknown
Apparent Right ascension
Unknown
Apparent Declination
Unknown
Sunlit
N/A
Visualization observer readout
Local Sidereal Time
18:31:23
Azimuth
Unknown
Elevation
Unknown
Doppler factor
Unknown
Orbital elements
Apogee altitude
1,055.521 km
Perigee altitude
1,029.454 km
Semi-major axis
7,420.625 km
Eccentricity
0.00176
Inclination
90.2234°
RAAN
28.3493°
Arg. of periapsis
279.0312°
True anomaly
202.65488°
Mean anomaly
202.7325°
Eccentric anomaly
202.69367°
Mean motion
3.39533 °/min
Orbital period
106.03 mins
BSTAR
0.00020632
Loading maneuver chart data...
Computing Atmospheric mass density...
Loading historical data...
Loading historical data...
Loading historical data...
Loading historical data...
Loading historical data...
Loading historical data...
Loading historical data...

Documentation

Showing up to 5 results
|